Home   Weather   Tijuana   Past weeks

Flag for Mexico Past Weather in Tijuana, Baja California, Mexico — Yesterday and Last 2 Weeks

Now
64 °F

Sunny.


Feels Like: 64 °F
Forecast: 53 / 70 °F
Wind: 9 mph from West

Location: Tijuana International Airport

Current Time: Feb 20, 2017 at 5:06:09 pm

Latest Report: Feb 20, 2017 at 3:45 pm


Visibility: 10 mi

Pressure: 30.28 "Hg

Humidity: 64%

Dew Point: 52 °F

Location of TijuanaLocation

Past Weather in Tijuana — Graph

°F

Tijuana Temperature Yesterday

Maximum temperature yesterday: 57 °F (at 1:41 pm)
Minimum temperature yesterday: 52 °F (at 2:43 am)
Average temperature yesterday: 53 °F

High & Low Weather Summary for the Past Weeks

 TemperatureHumidityPressure
High79 °F (Feb 9, 11:45 am)94% (Feb 7, 8:44 am)30.31 "Hg (Feb 7, 8:44 am)
Low46 °F (Feb 12, 5:49 am)24% (Feb 15, 11:49 am)29.53 "Hg (Feb 18, 2:41 am)
Average57 °F76%30.04 "Hg
* Reported Feb 5 3:47 pm — Feb 20 3:45 pm, Tijuana, Weather by CustomWeather, © 2017

Note: Actual official high and low records may vary slightly from our data, if they occured in-between our weather recording intervals... More about our weather records

Advertising

Tijuana Weather History for the Previous 24 Hours

Scroll right to see more
 ConditionsComfort  
Time TempWeatherWind HumidityBarometerVisibility
3:45 pm
Mon, Feb 20
64 °FSunny.9 mph64%30.28 "Hg10 mi
2:48 pm64 °FPassing clouds.6 mph60%30.25 "Hg10 mi
1:42 pm66 °FScattered clouds.7 mph56%30.25 "Hg10 mi
12:47 pm66 °FScattered clouds.5 mph60%30.28 "Hg10 mi
11:45 am66 °FScattered clouds.No wind52%30.28 "Hg9 mi
10:49 am64 °FPartly sunny.No wind52%30.30 "Hg8 mi
9:44 am61 °FScattered clouds.No wind52%30.31 "Hg8 mi
8:44 am59 °FPartly sunny.No wind59%30.29 "Hg7 mi
7:54 am54 °FScattered clouds.No wind77%30.28 "Hg7 mi
6:46 am52 °FOvercast.No wind77%30.25 "Hg6 mi
5:42 am50 °FPassing clouds.No wind82%30.23 "Hg5 mi
4:47 am52 °FOvercast.No wind77%30.23 "Hg5 mi
3:45 am52 °FOvercast.No wind77%30.22 "Hg5 mi
2:42 am52 °FOvercast.No wind77%30.21 "Hg5 mi
1:42 am52 °FOvercast.No wind77%30.21 "Hg5 mi
12:40 am52 °FOvercast.No wind77%30.24 "Hg5 mi
11:47 pm
Sun, Feb 19
52 °FPassing clouds.No wind77%30.21 "Hg5 mi
10:45 pm52 °FPassing clouds.No wind77%30.20 "Hg5 mi
9:53 pm52 °FPassing clouds.No wind77%30.20 "Hg5 mi
8:43 pm54 °FPassing clouds.No wind72%30.17 "Hg5 mi
7:54 pm52 °FPassing clouds.No wind77%30.16 "Hg5 mi
6:40 pm52 °FClear.No wind72%30.13 "Hg6 mi
5:49 pm54 °FPassing clouds.5 mph72%30.09 "Hg7 mi
Weather by CustomWeather, © 2017

See weather overviewHow to use our weather pages